Location: Pallagorio
(39.3000°N, 16.9000°E)
Time: 21:14:05
(UTC+00:00)

EXPRESS MD2 - Pass Details

Date: 24 January 2021
Orbit: 260 x 3983 km, 49.9° (Epoch: 02 March)

Event Time Altitude Azimuth Distance (km) Brightness Sun altitude
Rises 16:58:59 0° 304° (WNW) 5,137 8.9 -10.9°
Reaches altitude 10° 17:03:20 10° 304° (NW) 3,493 8.0 -11.7°
Maximum altitude 17:11:07 88° 218° (SW) 757 4.0 -13.1°
Enters shadow 17:14:45 11° 127° (SE) 1,683 5.4 -13.8°
